Regional Weather Roundup
Issued by NWS

Home | Current Version | Previous Version | Graphics & Text | Print | Product List | Glossary On
Versions: 1 2 3 4 5 6 7 8 9 10 11 12 13 14 15 16 17 18 19 20 21 22 23 24 25 26 27 28 29 30 31 32 33 34 35 36 37 38 39 40 41 42 43 44 45 46 47 48 49 50
000
ASUS43 KBIS 180302
RWRND

NORTH DAKOTA REGIONAL WEATHER ROUNDUP
NATIONAL WEATHER SERVICE BISMARCK ND
1000 PM CDT THU AUG 17 2017

NOTE: "FAIR" INDICATES FEW OR NO CLOUDS BELOW 12,000 FEET WITH NO
SIGNIFICANT WEATHER AND/OR OBSTRUCTIONS TO VISIBILITY.


NDZ001>003-009>011-017-180400-
NORTHWEST NORTH DAKOTA

CITY           SKY/WX    TMP DP  RH WIND       PRES   REMARKS
WILLISTON      CLEAR     73  54  51 N18       29.90R
MINOT          PTCLDY    69  56  62 E9        29.83R
MINOT AFB      PTCLDY    70  57  63 E9        29.83R
$$

NDZ018>021-031>035-040>046-180400-
SOUTHWEST NORTH DAKOTA

CITY           SKY/WX    TMP DP  RH WIND       PRES   REMARKS
BISMARCK       CLOUDY    70  58  65 SE7       29.84R
DICKINSON      CLOUDY    64  49  57 W6        29.88S
GARRISON         N/A     67  61  81 S3        29.82R
HETTINGER ARPT CLEAR     67  47  48 W3        29.92S
$$

NDZ004>008-012>016-024-026-027-054-180400-
NORTHEAST NORTH DAKOTA

CITY           SKY/WX    TMP DP  RH WIND       PRES   REMARKS
GRAND FORKS    PTCLDY    66  63  90 SW3       29.83R
GRND FRKS AFB  PTCLDY    72  63  73 VRB1      29.90R
DEVILS LAKE    CLEAR     67  60  78 CALM      29.86S
$$

NDZ022-023-025-028>030-036>039-047>053-180400-
SOUTHEAST NORTH DAKOTA

CITY           SKY/WX    TMP DP  RH WIND       PRES   REMARKS
FARGO          CLEAR     65  60  84 CALM      29.84R
JAMESTOWN      CLEAR     64  58  80 SE3       29.87R
$$





USA.gov is the U.S. government's official web portal to all federal, state and local government web resources and services.